カタログに戻る

STARLINK-5742

運用中通信VLEO
NORAD 55583·PAYLOAD·🇺🇸 United States

打ち上げ Feb 12, 2023 から Cape Canaveral Space Force Station

Loading…

次のパス (今後24時間)

TLE

最新Source: CelesTrak SupGP

元期: Sep 15, 2026, 02:04 UTC

1 55583C 23020Q   26258.08659722 -.00023814  00000+0 -86301-3 0  2583
2 55583  43.0025  15.2482 0001479 267.5709  53.7392 15.27572286    16

AllMySatでSTARLINK-5742をリアルタイム追跡

Download on the App Store